Location: Bourr�ac
(43.1036°N, 0.0013°E)
Time: 19:10:54
(UTC+00:00)

Daily predictions for brighter satellites

Satellite Brightness Start Highest point End
(mag) Time Altitude Azimuth Time Altitude Azimuth Time Altitude Azimuth
ATLAS 5 CENTAUR R/B 4.0 17:22:29 10° WNW 17:24:59 15° NNW 17:27:40 10° N
Cosmos 1953 Rocket 4.3 17:21:13 10° N 17:25:13 32° ENE 17:29:12 10° SE
Cosmos 2058 Rocket 4.2 17:22:08 10° SE 17:25:40 23° E 17:29:13 10° NE
YAOGAN 6 3.1 17:24:21 10° S 17:27:57 67° W 17:31:38 10° NNW
CZ-4 R/B 2.9 17:25:58 10° E 17:28:14 15° ENE 17:30:29 10° NNE
CZ-4B R/B 3.4 17:23:10 10° SSE 17:28:48 83° WSW 17:34:22 10° NNW
Cosmos 1400 Rocket 4.0 17:25:51 10° SE 17:29:05 23° E 17:32:19 10° NE
Lacrosse 5 3.8 17:26:04 10° WNW 17:29:50 20° NNW 17:33:36 10° NNE
GENESIS II 4.3 17:26:01 10° SSW 17:30:01 73° ESE 17:34:04 10° NE
ADEOS Rocket 3.8 17:28:12 10° N 17:34:31 65° WNW 17:41:31 10° SSW
USA 281 3.4 17:30:46 10° SSE 17:37:19 80° WSW 17:43:56 10° NNW
Cosmos 1908 4.3 17:34:37 10° SSW 17:38:21 50° WNW 17:42:07 10° N
Cosmos 1656 4.5 17:35:34 10° SSE 17:40:18 30° ESE 17:45:06 10° NE
FALCON 9 DEB 3.0 17:38:42 10° SW 17:41:54 66° SE 17:44:56 11° ENE
Cosmos 292 Rocket 3.8 17:38:35 10° S 17:43:17 62° ESE 17:48:04 10° NNE
Cosmos 2227 Rocket 3.0 17:39:06 10° N 17:44:01 29° NE 17:48:54 10° ESE
FALCON 9 DEB 2.9 17:44:03 10° SW 17:47:15 80° SE 17:50:05 13° ENE
Cosmos 1892 4.1 17:44:25 10° NNE 17:47:18 20° ENE 17:50:10 10° ESE
CZ-4B R/B 1.5 17:46:04 10° N 17:49:17 72° WNW 17:52:24 10° SSW
COSMO-SKYMED 1 2.8 17:47:10 10° NNE 17:51:25 49° E 17:55:37 10° S
SL-4 R/B 3.5 17:49:52 10° NW 17:52:39 21° N 17:55:22 11° NE
SMAP 4.2 17:49:42 10° S 17:54:12 49° W 17:58:44 10° NNW
USA 306 4.5 17:51:14 10° NW 17:54:38 22° NNE 17:57:16 13° ENE
H-2A R/B 4.2 17:51:22 10° N 17:54:54 27° WNW 17:58:22 10° SW
H-2A R/B 3.2 17:52:40 10° ESE 17:56:56 25° ENE 18:01:16 10° N
Timation 2 Rocket 4.1 17:50:41 10° NNW 17:57:17 70° ENE 18:04:05 10° SE
Cosmos 1300 2.6 17:53:34 10° S 17:57:22 83° E 18:01:12 10° N
CZ-2D R/B 3.6 17:54:14 10° SE 17:57:48 40° ENE 18:01:23 10° N
FALCON 9 DEB 2.9 17:54:42 10° SW 17:57:56 87° NW 18:00:24 16° NE
Cosmos 1346 Rocket 4.1 17:55:20 10° NNE 17:58:16 19° ENE 17:59:45 16° E
Cosmos 1315 Rocket 4.3 17:56:34 10° SE 17:58:40 16° E 17:58:40 16° E
Okean O Rocket 3.0 17:55:14 10° S 17:59:22 42° W 18:03:31 10° NNW
Cosmos 1697 Rocket 3.7 17:56:22 10° SSE 18:00:41 23° E 18:04:15 13° NE
Cosmos 1408 4.1 17:59:04 10° NNE 18:01:18 17° ENE 18:01:18 17° ENE
Cosmos 1825 Rocket 4.1 17:58:15 10° NNW 18:02:40 65° W 18:07:02 10° S
YAOGAN 1 3.2 18:01:24 10° SE 18:05:17 34° ENE 18:09:12 10° N
NOAA 11 4.5 18:03:41 10° S 18:09:07 72° WSW 18:14:34 10° NNW
FALCON 9 DEB 3.2 18:07:26 10° WSW 18:10:37 63° NNW 18:12:34 21° NE
Cosmos 1825 4.4 18:08:52 10° NNE 18:09:07 11° NE 18:09:07 11° NE
IRS-1C Rocket 4.0 18:07:31 10° SSE 18:12:46 85° ENE 18:18:05 10° NNW
Meteor 2-8 Rocket 4.4 18:07:01 10° S 18:13:03 68° E 18:19:09 10° NNE
Cosmos 1726 Rocket 4.1 18:12:35 10° SSW 18:16:52 62° W 18:21:14 10° N
Cosmos 1553 Rocket 4.0 18:12:13 10° S 18:18:29 63° E 18:24:41 10° NNE
ERS-2 4.4 18:18:26 10° N 18:21:32 26° WNW 18:24:36 10° SW
Cosmos 1689 Rocket 2.4 18:18:56 10° N 18:21:47 63° WNW 18:24:38 10° SSW
Cosmos 1980 Rocket 3.8 18:19:13 10° SE 18:21:05 16° SE 18:21:05 16° SE
Cosmos 2297 Rocket 2.1 18:18:42 10° NNW 18:24:22 69° ENE 18:30:00 10° SSE
Cosmos 1340 2.5 18:20:56 10° N 18:24:44 79° E 18:28:30 10° SSE
In-Cosmos 22 Rocket 4.0 18:22:01 10° N 18:27:24 77° E 18:32:51 10° SSE
SeaSat 1 3.3 18:29:14 28° ENE 18:30:09 30° NE 18:34:25 10° N
CSL-04 Debris 4.3 18:25:05 10° SE 18:30:16 49° ENE 18:35:31 10° N
Okean-O 2.5 18:26:34 10° SSE 18:31:00 83° ENE 18:35:27 10° NNW
NOSS 3-3 (A) 4.1 18:28:00 10° S 18:33:26 47° ESE 18:36:53 24° ENE
NOSS 3-3 (C) 4.1 18:28:06 10° S 18:33:34 47° ESE 18:37:00 24° ENE
USA 307 3.9 18:33:45 10° NW 18:37:33 30° NNE 18:38:09 29° NE
USA 215 4.2 18:36:03 22° ENE 18:39:02 32° NNE 18:44:40 10° NW
Cosmos 1939 Rocket 4.1 18:37:07 10° S 18:40:54 42° W 18:44:40 10° NNW
USA 308 3.9 18:38:32 10° NW 18:42:23 31° NNE 18:42:46 31° NE
Helios 1A Rocket 3.4 18:39:10 10° S 18:43:15 61° WSW 18:47:21 10° NNW
CRYOSAT 2 4.3 18:39:01 10° NNE 18:43:49 58° E 18:48:36 10° S
SL-08 R/B 4.4 18:38:08 10° N 18:44:20 86° W 18:50:26 10° S
Cosmos 968 Rocket 3.3 18:40:24 10° NNW 18:45:38 75° ENE 18:49:24 19° SSE
Cosmos 1745 Rocket 3.9 18:39:45 10° N 18:46:04 72° E 18:52:23 10° SSE
Cosmos 1455 2.7 18:42:45 10° S 18:45:23 41° SSE 18:45:23 41° SSE
ATLAS 2AS CENTAUR R/B 3.9 18:40:37 10° NNW 18:46:47 26° NNE 18:48:35 23° NE
Meteor 2-15 4.3 18:41:15 10° S 18:47:24 82° E 18:53:34 10° N
Cosmos 2219 3.5 18:47:22 10° NNW 18:53:06 68° WSW 18:58:47 10° SSE
SJ-11-01 4.1 18:51:59 24° SSE 18:54:49 75° ENE 18:59:30 10° N
CZ-4C R/B 4.3 18:51:00 10° NNW 18:55:40 19° NNE 18:57:04 18° NE
CZ-2C R/B 3.4 18:51:21 10° S 18:57:10 78° WSW 19:02:53 10° NNW
Cosmos 220 Rocket 3.9 18:54:07 10° SSW 18:58:28 86° ESE 18:59:40 48° NNE
MOS 1 Rocket 3.2 18:54:52 10° NNE 18:59:33 83° E 19:04:32 10° S
Cosmos 1486 Rocket 4.1 18:56:13 10° NNW 19:01:33 77° WSW 19:05:50 16° SSE
Cosmos 1386 Rocket 4.4 18:55:12 10° N 19:01:39 88° E 19:07:59 10° S
Cosmos 2082 3.6 18:56:50 10° NNW 19:02:33 64° ENE 19:03:45 52° ESE
CZ-4 R/B 2.4 18:59:11 10° S 19:02:55 43° W 19:06:38 10° NNW
Cosmos 2058 3.0 19:00:35 10° NNW 19:04:41 74° W 19:06:04 40° S
Meteor 2-10 Rocket 3.7 19:02:08 10° SSW 19:07:29 72° W 19:12:39 10° N
Cosmos 1503 Rocket 3.8 19:05:58 10° NNW 19:11:12 75° ENE 19:11:33 71° ESE
Cosmos 2369 3.5 19:07:31 10° SSW 19:13:14 79° ESE 19:14:50 49° NE
Lacrosse 5 3.8 19:11:08 10° NW 19:14:29 17° N 19:14:46 17° NNE
ARGOS 3.0 19:13:21 50° SSE 19:14:50 82° ENE 19:20:18 10° NNW
BREEZE-M R/B 4.3 19:10:55 10° WNW 19:15:28 55° NNE 19:16:54 47° ENE
Cosmos 1709 Rocket 3.9 19:09:36 10° N 19:16:00 70° E 19:17:52 47° SSE
Timation 1 Rocket 4.4 19:10:41 10° NNW 19:16:23 55° NE 19:16:23 55° NE
BREEZE-M DEB (TANK) 4.4 19:13:17 10° SW 19:17:51 75° SE 19:24:04 31° ENE
Cosmos 1354 Rocket 3.9 19:16:51 10° NNW 19:21:46 75° NNE 19:21:46 75° NNE
Atlas Centaur 2 3.9 19:15:01 10° SW 19:22:19 32° S 19:23:51 30° SSE
Cosmos 2227 Rocket 3.1 19:22:52 10° NW 19:28:15 45° WSW 19:32:21 17° S
Milstar 3 4.1 19:23:33 10° SW 19:28:49 24° S 19:29:44 24° S
USA 305 4.3 19:24:44 10° NW 19:27:21 34° NNW 19:27:21 34° NNW
Cosmos 883 Rocket 4.4 19:23:54 10° S 19:30:05 84° W 19:36:15 10° N
GEOS 3 Rocket 3.8 19:29:48 62° S 19:30:28 69° SW 19:35:52 10° NW
Cosmos 2315 Rocket 3.8 19:24:43 10° S 19:30:55 81° E 19:37:09 10° N
CSL-04 Rocket 4.3 19:25:51 10° S 19:31:17 55° W 19:36:43 10° NNW
SL-4 R/B 4.2 19:29:42 10° NW 19:30:57 18° NNW 19:30:57 18° NNW
Cosmos 1315 Rocket 4.4 19:31:37 10° SW 19:34:31 32° W 19:34:31 32° W
USA 306 4.5 19:31:04 10° NW 19:33:25 31° NW 19:33:25 31° NW
H-2A R/B 3.0 19:30:48 10° S 19:36:00 49° W 19:41:19 10° NNW
Cosmos 2263 Rocket 3.7 19:30:50 10° N 19:33:26 24° N 19:33:26 24° N
Cosmos 1697 Rocket 3.3 19:38:47 10° SW 19:44:14 52° WNW 19:46:04 37° N
Cosmos 1980 Rocket 3.9 20:00:49 10° SW 20:02:58 24° SW 20:02:58 24° SW
SeaSat 1 4.0 20:09:02 32° WNW 20:09:02 32° WNW 20:12:11 10° NW
NOSS 3-4 (A) 4.3 20:09:38 10° NW 20:14:46 52° NNW 20:14:46 52° NNW
NOSS 3-4 (C) 4.3 20:09:45 10° NW 20:14:51 52° NNW 20:14:51 52° NNW
USA 215 4.0 20:23:25 45° NNW 20:23:25 45° NNW 20:27:53 10° NW
ATLAS 2AS CENTAUR R/B 3.8 20:31:28 10° NW 20:36:01 40° NNW 20:36:01 40° NNW
CZ-4C R/B 4.2 20:38:51 10° NNW 20:42:14 30° NNW 20:42:14 30° NNW
